DL1MX-13 Weather Reports


time (UTC)temp
C
wind
direction
speed
KPH
gust
KPH
rain 1hr
cm
rain 24hr
cm
rain mn
cm
humidity
%
barometer
mb
20260504005001 11 45 9.7 0.0 0.00 0.00 0.00 73 1013.3
20260504004902 11 45 9.7 0.0 0.00 0.00 0.00 73 1013.3
20260504004802 11 45 9.7 0.0 0.00 0.00 0.00 73 1013.3
20260504004702 11 45 9.7 0.0 0.00 0.00 0.00 73 1013.3
20260504004601 11 45 9.7 0.0 0.00 0.00 0.00 73 1013.2
20260504004502 11 47 11.3 0.0 0.00 0.00 0.00 73 1013.3
20260504004402 11 47 11.3 0.0 0.00 0.00 0.00 73 1013.2
20260504004301 12 40 8.0 0.0 0.00 0.00 0.00 73 1013.3
20260504004202 12 40 8.0 0.0 0.00 0.00 0.00 73 1013.2
20260504004101 12 40 8.0 0.0 0.00 0.00 0.00 73 1013.2
20260504004002 12 45 9.7 0.0 0.00 0.00 0.00 72 1013.2
20260504003901 12 45 9.7 0.0 0.00 0.00 0.00 72 1013.2
20260504003802 12 45 9.7 0.0 0.00 0.00 0.00 72 1013.2
20260504003702 12 45 11.3 0.0 0.00 0.00 0.00 72 1013.2
20260504003601 12 45 11.3 0.0 0.00 0.00 0.00 72 1013.2
20260504003502 12 37 11.3 0.0 0.00 0.00 0.00 73 1013.2
20260504003401 12 37 11.3 0.0 0.00 0.00 0.00 73 1013.2
20260504003302 12 35 11.3 0.0 0.00 0.00 0.00 72 1013.2
20260504003201 12 35 11.3 0.0 0.00 0.00 0.00 72 1013.1
20260504003102 12 35 11.3 0.0 0.00 0.00 0.00 72 1013.2
20260504003002 12 30 11.3 0.0 0.00 0.00 0.00 73 1013.2
20260504002902 12 30 11.3 0.0 0.00 0.00 0.00 73 1013.2
20260504002802 12 30 11.3 0.0 0.00 0.00 0.00 73 1013.2
20260504002701 12 30 11.3 0.0 0.00 0.00 0.00 73 1013.2
20260504002602 12 30 11.3 0.0 0.00 0.00 0.00 73 1013.2
20260504002501 12 30 11.3 0.0 0.00 0.00 0.00 73 1013.2
20260504002402 12 30 11.3 0.0 0.00 0.00 0.00 73 1013.2
20260504002303 12 30 11.3 0.0 0.00 0.00 0.00 73 1013.2
20260504002102 11 35 14.5 0.0 0.00 0.00 0.00 74 1013.2
20260504002002 11 42 9.7 0.0 0.00 0.00 0.00 74 1013.2
20260504001902 11 42 9.7 0.0 0.00 0.00 0.00 74 1013.2
20260504001702 11 42 9.7 0.0 0.00 0.00 0.00 74 1013.2
20260504001601 11 42 9.7 0.0 0.00 0.00 0.00 74 1013.2
20260504001502 11 42 9.7 0.0 0.00 0.00 0.00 74 1013.2
20260504001401 11 42 9.7 0.0 0.00 0.00 0.00 74 1013.1
20260504001302 11 42 9.7 0.0 0.00 0.00 0.00 74 1013.2
20260504001202 11 37 9.7 0.0 0.00 0.00 0.00 74 1013.2
20260504001102 11 37 9.7 0.0 0.00 0.00 0.00 74 1013.1
20260504001002 11 42 9.7 0.0 0.00 0.00 0.00 74 1013.2
20260504000901 11 42 9.7 0.0 0.00 0.00 0.00 74 1013.2
20260504000802 11 42 9.7 0.0 0.00 0.00 0.00 74 1013.2
20260504000701 11 52 8.0 0.0 0.00 0.00 0.00 74 1013.2
20260504000602 11 52 8.0 0.0 0.00 0.00 0.00 74 1013.2
20260504000501 11 52 8.0 0.0 0.00 0.00 0.00 74 1013.2
20260504000402 11 42 6.4 0.0 0.00 0.00 0.00 74 1013.2
20260504000302 11 42 6.4 0.0 0.00 0.00 0.00 74 1013.2
20260504000201 11 42 6.4 0.0 0.00 0.00 0.00 74 1013.3
20260504000001 12 30 8.0 0.0 0.00 0.00 0.00 74 1013.2
20260503235902 12 37 8.0 0.0 0.00 0.00 0.00 73 1013.2
20260503235801 12 37 8.0 0.0 0.00 0.00 0.00 73 1013.2
20260503235701 12 37 8.0 0.0 0.00 0.00 0.00 73 1013.2
20260503235602 12 35 6.4 0.0 0.00 0.00 0.00 73 1013.2
20260503235501 12 35 6.4 0.0 0.00 0.00 0.00 73 1013.2
20260503235402 12 35 6.4 0.0 0.00 0.00 0.00 73 1013.2
20260503235301 12 35 6.4 0.0 0.00 0.00 0.00 73 1013.2
20260503235202 12 35 6.4 0.0 0.00 0.00 0.00 73 1013.2
20260503235102 12 35 8.0 0.0 0.00 0.00 0.00 74 1013.2
20260503235002 12 35 8.0 0.0 0.00 0.00 0.00 74 1013.3
20260503234902 11 55 9.7 0.0 0.00 0.00 0.00 74 1013.2
20260503234801 11 55 9.7 0.0 0.00 0.00 0.00 74 1013.3
20260503234702 11 55 9.7 0.0 0.00 0.00 0.00 74 1013.3
20260503234601 12 57 6.4 0.0 0.00 0.00 0.00 74 1013.3
20260503234502 12 57 6.4 0.0 0.00 0.00 0.00 74 1013.3
20260503234401 12 65 8.0 0.0 0.00 0.00 0.00 74 1013.3
20260503234302 12 65 8.0 0.0 0.00 0.00 0.00 74 1013.3
20260503234201 12 65 8.0 0.0 0.00 0.00 0.00 74 1013.3
20260503234102 12 70 6.4 0.0 0.00 0.00 0.00 73 1013.3
20260503234002 12 70 6.4 0.0 0.00 0.00 0.00 73 1013.3
20260503233901 12 75 8.0 0.0 0.00 0.00 0.00 73 1013.3
20260503233802 12 75 8.0 0.0 0.00 0.00 0.00 73 1013.3
20260503233701 12 75 8.0 0.0 0.00 0.00 0.00 73 1013.3
20260503233602 12 70 6.4 0.0 0.00 0.00 0.00 73 1013.3
20260503233501 12 70 6.4 0.0 0.00 0.00 0.00 73 1013.3
20260503233402 12 67 8.0 0.0 0.00 0.00 0.00 72 1013.3
20260503233301 12 67 8.0 0.0 0.00 0.00 0.00 72 1013.3
20260503233202 12 67 8.0 0.0 0.00 0.00 0.00 72 1013.3
20260503233102 12 67 8.0 0.0 0.00 0.00 0.00 72 1013.3
20260503232902 12 67 8.0 0.0 0.00 0.00 0.00 72 1013.3
20260503232801 12 70 6.4 0.0 0.00 0.00 0.00 72 1013.3
20260503232702 12 70 6.4 0.0 0.00 0.00 0.00 72 1013.3
20260503232601 12 65 8.0 0.0 0.00 0.00 0.00 71 1013.3
20260503232502 12 65 8.0 0.0 0.00 0.00 0.00 71 1013.3
20260503232402 12 60 8.0 0.0 0.00 0.00 0.00 71 1013.4
20260503232305 12 60 8.0 0.0 0.00 0.00 0.00 71 1013.4
20260503232202 12 60 8.0 0.0 0.00 0.00 0.00 71 1013.4
20260503232101 12 55 8.0 0.0 0.00 0.00 0.00 70 1013.4
20260503232002 12 55 8.0 0.0 0.00 0.00 0.00 70 1013.4
20260503231901 12 55 8.0 0.0 0.00 0.00 0.00 70 1013.4
20260503231802 12 60 8.0 0.0 0.00 0.00 0.00 70 1013.4
20260503231701 12 60 8.0 0.0 0.00 0.00 0.00 70 1013.4
20260503231602 12 55 9.7 0.0 0.00 0.00 0.00 70 1013.4
20260503231501 12 55 9.7 0.0 0.00 0.00 0.00 70 1013.4
20260503231402 12 55 11.3 0.0 0.00 0.00 0.00 70 1013.4
20260503231302 12 55 11.3 0.0 0.00 0.00 0.00 70 1013.4
20260503231202 12 55 11.3 0.0 0.00 0.00 0.00 70 1013.4
20260503231102 12 60 9.7 0.0 0.00 0.00 0.00 70 1013.4
20260503231001 12 60 9.7 0.0 0.00 0.00 0.00 70 1013.4
20260503230902 12 60 9.7 0.0 0.00 0.00 0.00 70 1013.4
20260503230801 12 65 8.0 0.0 0.00 0.00 0.00 69 1013.4
20260503230702 12 65 8.0 0.0 0.00 0.00 0.00 69 1013.4
20260503230602 12 65 8.0 0.0 0.00 0.00 0.00 69 1013.4
20260503230502 12 67 9.7 0.0 0.00 0.00 0.00 69 1013.4
20260503230402 12 67 9.7 0.0 0.00 0.00 0.00 69 1013.4
20260503230302 13 57 8.0 0.0 0.00 0.00 0.00 68 1013.4
20260503230202 13 57 8.0 0.0 0.00 0.00 0.00 68 1013.4
20260503230002 13 57 8.0 0.0 0.00 0.00 0.00 68 1013.5
20260503225901 13 57 8.0 0.0 0.00 0.00 0.00 68 1013.4
20260503225802 13 60 8.0 0.0 0.00 0.00 0.00 67 1013.4
20260503225702 13 60 8.0 0.0 0.00 0.00 0.00 67 1013.5
20260503225601 13 60 8.0 0.0 0.00 0.00 0.00 67 1013.5
20260503225502 13 55 9.7 0.0 0.00 0.00 0.00 67 1013.5
20260503225401 13 55 9.7 0.0 0.00 0.00 0.00 67 1013.5
20260503225304 13 60 9.7 0.0 0.00 0.00 0.00 67 1013.5
20260503225201 13 60 9.7 0.0 0.00 0.00 0.00 67 1013.6
20260503225102 13 60 8.0 0.0 0.00 0.00 0.00 66 1013.6
20260503225001 13 60 8.0 0.0 0.00 0.00 0.00 66 1013.6
20260503224902 13 60 8.0 0.0 0.00 0.00 0.00 66 1013.6
20260503224802 13 55 9.7 0.0 0.00 0.00 0.00 67 1013.6
20260503224701 13 55 9.7 0.0 0.00 0.00 0.00 67 1013.6
20260503224602 13 55 9.7 0.0 0.00 0.00 0.00 67 1013.6
20260503224501 13 55 8.0 0.0 0.00 0.00 0.00 66 1013.6
20260503224402 13 55 8.0 0.0 0.00 0.00 0.00 66 1013.6
20260503224301 13 55 8.0 0.0 0.00 0.00 0.00 66 1013.6
20260503224202 13 57 9.7 0.0 0.00 0.00 0.00 66 1013.6
20260503224101 13 57 9.7 0.0 0.00 0.00 0.00 66 1013.6
20260503224002 13 60 8.0 0.0 0.00 0.00 0.00 66 1013.6
20260503223901 13 60 8.0 0.0 0.00 0.00 0.00 66 1013.6
20260503223802 13 67 9.7 0.0 0.00 0.00 0.00 66 1013.6
20260503223702 13 67 9.7 0.0 0.00 0.00 0.00 66 1013.6
20260503223601 13 67 9.7 0.0 0.00 0.00 0.00 66 1013.7
20260503223502 13 67 11.3 0.0 0.00 0.00 0.00 65 1013.6
20260503223401 13 67 11.3 0.0 0.00 0.00 0.00 65 1013.6
20260503223302 13 67 11.3 0.0 0.00 0.00 0.00 65 1013.6
20260503223201 13 55 14.5 0.0 0.00 0.00 0.00 65 1013.6
20260503223102 13 55 14.5 0.0 0.00 0.00 0.00 65 1013.7
20260503223002 13 65 12.9 0.0 0.00 0.00 0.00 65 1013.6
20260503222902 13 65 12.9 0.0 0.00 0.00 0.00 65 1013.7
20260503222802 13 65 12.9 0.0 0.00 0.00 0.00 65 1013.7
20260503222701 13 65 12.9 0.0 0.00 0.00 0.00 65 1013.7
20260503222602 13 65 12.9 0.0 0.00 0.00 0.00 65 1013.7
20260503222501 13 65 9.7 0.0 0.00 0.00 0.00 64 1013.7
20260503222402 13 60 14.5 0.0 0.00 0.00 0.00 64 1013.8
20260503222301 13 60 14.5 0.0 0.00 0.00 0.00 64 1013.7
20260503222201 13 50 9.7 0.0 0.00 0.00 0.00 64 1013.8
20260503222102 13 50 9.7 0.0 0.00 0.00 0.00 64 1013.8
20260503222001 13 60 12.9 0.0 0.00 0.00 0.00 64 1013.7
20260503221902 13 60 12.9 0.0 0.00 0.00 0.00 64 1013.7
20260503221801 13 75 12.9 0.0 0.00 0.00 0.00 63 1013.8
20260503221702 13 75 12.9 0.0 0.00 0.00 0.00 63 1013.7
20260503221602 13 75 12.9 0.0 0.00 0.00 0.00 63 1013.8
20260503221502 13 67 16.1 0.0 0.00 0.00 0.00 64 1013.8
20260503221402 13 67 16.1 0.0 0.00 0.00 0.00 64 1013.8
20260503221302 14 67 11.3 0.0 0.00 0.00 0.00 63 1013.8
20260503221202 14 67 11.3 0.0 0.00 0.00 0.00 63 1013.8
20260503221101 14 67 11.3 0.0 0.00 0.00 0.00 63 1013.8
20260503221002 14 72 20.9 0.0 0.00 0.00 0.00 63 1013.8
20260503220901 14 72 20.9 0.0 0.00 0.00 0.00 63 1013.8
20260503220802 14 70 9.7 0.0 0.00 0.00 0.00 62 1013.8
20260503220702 14 80 17.7 0.0 0.00 0.00 0.00 62 1013.8
20260503220601 14 80 17.7 0.0 0.00 0.00 0.00 62 1013.8
20260503220502 14 80 17.7 0.0 0.00 0.00 0.00 62 1013.8
20260503220401 14 80 17.7 0.0 0.00 0.00 0.00 62 1013.7
20260503220302 14 75 19.3 0.0 0.00 0.00 0.00 62 1013.8
20260503220201 14 75 19.3 0.0 0.00 0.00 0.00 62 1013.8
20260503220002 14 67 24.1 0.0 0.00 0.00 0.00 62 1013.8
20260503215902 14 67 24.1 0.0 0.00 0.00 0.00 62 1013.7
20260503215802 14 72 17.7 0.0 0.00 0.00 0.00 62 1013.8
20260503215702 14 72 17.7 0.0 0.00 0.00 0.00 62 1013.8
20260503215602 14 72 17.7 0.0 0.00 0.00 0.00 62 1013.8
20260503215501 14 72 17.7 0.0 0.00 0.00 0.00 62 1013.8
20260503215402 14 72 17.7 0.0 0.00 0.00 0.00 62 1013.8
20260503215304 14 70 16.1 0.0 0.00 0.00 0.00 62 1013.8
20260503215202 14 70 16.1 0.0 0.00 0.00 0.00 62 1013.8
20260503215101 14 70 16.1 0.0 0.00 0.00 0.00 62 1013.8
20260503215002 14 60 12.9 0.0 0.00 0.00 0.00 62 1013.8
20260503214902 14 60 12.9 0.0 0.00 0.00 0.00 62 1013.8
20260503214801 14 60 12.9 0.0 0.00 0.00 0.00 62 1013.7
20260503214702 14 55 16.1 0.0 0.00 0.00 0.00 62 1013.7
20260503214601 14 55 16.1 0.0 0.00 0.00 0.00 62 1013.7
20260503214502 14 65 17.7 0.0 0.00 0.00 0.00 61 1013.7
20260503214401 14 65 17.7 0.0 0.00 0.00 0.00 61 1013.7
20260503214302 14 65 17.7 0.0 0.00 0.00 0.00 61 1013.8
20260503214202 14 65 19.3 0.0 0.00 0.00 0.00 61 1013.7
20260503214101 14 65 19.3 0.0 0.00 0.00 0.00 61 1013.7
20260503214002 14 67 20.9 0.0 0.00 0.00 0.00 61 1013.7
20260503213901 14 67 20.9 0.0 0.00 0.00 0.00 61 1013.8
20260503213802 14 67 20.9 0.0 0.00 0.00 0.00 61 1013.7
20260503213701 14 67 9.7 0.0 0.00 0.00 0.00 61 1013.7
20260503213602 14 70 12.9 0.0 0.00 0.00 0.00 61 1013.7
20260503213502 14 62 12.9 0.0 0.00 0.00 0.00 61 1013.7
20260503213402 14 62 12.9 0.0 0.00 0.00 0.00 61 1013.7
20260503213302 14 57 20.9 0.0 0.00 0.00 0.00 62 1013.7
20260503213201 14 57 20.9 0.0 0.00 0.00 0.00 62 1013.7
20260503213102 14 60 14.5 0.0 0.00 0.00 0.00 62 1013.7
20260503213001 14 65 9.7 0.0 0.00 0.00 0.00 62 1013.7
20260503212902 14 65 9.7 0.0 0.00 0.00 0.00 62 1013.7
20260503212801 14 65 20.9 0.0 0.00 0.00 0.00 62 1013.7
20260503212702 14 70 14.5 0.0 0.00 0.00 0.00 61 1013.7
20260503212602 14 70 14.5 0.0 0.00 0.00 0.00 61 1013.7
20260503212502 14 70 14.5 0.0 0.00 0.00 0.00 61 1013.7
20260503212402 14 65 12.9 0.0 0.00 0.00 0.00 61 1013.6
20260503212301 14 65 12.9 0.0 0.00 0.00 0.00 61 1013.6
20260503212202 14 70 11.3 0.0 0.00 0.00 0.00 60 1013.6
20260503212101 14 70 11.3 0.0 0.00 0.00 0.00 60 1013.6
20260503212002 14 70 14.5 0.0 0.00 0.00 0.00 60 1013.6
20260503211901 14 70 14.5 0.0 0.00 0.00 0.00 60 1013.6
20260503211802 14 70 14.5 0.0 0.00 0.00 0.00 60 1013.6
20260503211702 15 65 9.7 0.0 0.00 0.00 0.00 59 1013.6
20260503211601 15 65 9.7 0.0 0.00 0.00 0.00 59 1013.6
20260503211502 15 55 20.9 0.0 0.00 0.00 0.00 59 1013.6
20260503211401 15 55 20.9 0.0 0.00 0.00 0.00 59 1013.6
20260503211302 15 55 11.3 0.0 0.00 0.00 0.00 59 1013.6
20260503211201 15 52 12.9 0.0 0.00 0.00 0.00 59 1013.6
20260503211103 15 52 12.9 0.0 0.00 0.00 0.00 59 1013.6
20260503211001 15 52 12.9 0.0 0.00 0.00 0.00 59 1013.6
20260503210901 14 57 16.1 0.0 0.00 0.00 0.00 60 1013.6
20260503210802 14 57 16.1 0.0 0.00 0.00 0.00 60 1013.6
20260503210701 14 62 11.3 0.0 0.00 0.00 0.00 60 1013.6
20260503210602 14 62 11.3 0.0 0.00 0.00 0.00 60 1013.5
20260503210501 14 62 11.3 0.0 0.00 0.00 0.00 60 1013.6
20260503210402 14 62 8.0 0.0 0.00 0.00 0.00 61 1013.6
20260503210302 14 62 8.0 0.0 0.00 0.00 0.00 61 1013.6
20260503210202 14 62 8.0 0.0 0.00 0.00 0.00 61 1013.5
20260503210001 14 65 11.3 0.0 0.00 0.00 0.00 60 1013.5
20260503205902 15 62 9.7 0.0 0.00 0.00 0.00 59 1013.5
20260503205801 15 62 9.7 0.0 0.00 0.00 0.00 59 1013.6
20260503205702 15 62 9.7 0.0 0.00 0.00 0.00 59 1013.6
20260503205602 15 62 9.7 0.0 0.00 0.00 0.00 58 1013.6
20260503205502 15 62 9.7 0.0 0.00 0.00 0.00 58 1013.6
20260503205402 15 62 9.7 0.0 0.00 0.00 0.00 58 1013.5
20260503205303 15 62 9.7 0.0 0.00 0.00 0.00 58 1013.6
20260503205202 15 57 11.3 0.0 0.00 0.00 0.00 58 1013.5
20260503205101 15 62 14.5 0.0 0.00 0.00 0.00 58 1013.5
20260503205002 15 62 14.5 0.0 0.00 0.00 0.00 58 1013.5
20260503204902 15 62 14.5 0.0 0.00 0.00 0.00 58 1013.3
20260503204802 15 62 12.9 0.0 0.00 0.00 0.00 58 1013.6
20260503204702 15 62 12.9 0.0 0.00 0.00 0.00 58 1013.6
20260503204601 15 62 12.9 0.0 0.00 0.00 0.00 58 1013.6
20260503204502 15 62 12.9 0.0 0.00 0.00 0.00 58 1013.6
20260503204401 15 62 12.9 0.0 0.00 0.00 0.00 58 1013.6
20260503204302 15 65 11.3 0.0 0.00 0.00 0.00 58 1013.6
20260503204201 15 65 11.3 0.0 0.00 0.00 0.00 58 1013.6
20260503204102 15 72 11.3 0.0 0.00 0.00 0.00 57 1013.6
20260503204002 15 72 11.3 0.0 0.00 0.00 0.00 57 1013.6
20260503203902 15 75 24.1 0.0 0.00 0.00 0.00 56 1013.6
20260503203802 15 75 24.1 0.0 0.00 0.00 0.00 56 1013.5
20260503203702 15 75 24.1 0.0 0.00 0.00 0.00 56 1013.5
20260503203602 15 67 17.7 0.0 0.00 0.00 0.00 55 1013.5
20260503203501 15 67 17.7 0.0 0.00 0.00 0.00 55 1013.5
20260503203402 15 65 20.9 0.0 0.00 0.00 0.00 55 1013.5
20260503203301 15 65 20.9 0.0 0.00 0.00 0.00 55 1013.5
20260503203202 15 65 20.9 0.0 0.00 0.00 0.00 55 1013.6
20260503203101 15 65 20.9 0.0 0.00 0.00 0.00 55 1013.5
20260503203002 15 65 20.9 0.0 0.00 0.00 0.00 55 1013.5
20260503202902 15 65 12.9 0.0 0.00 0.00 0.00 55 1013.5
20260503202801 15 70 9.7 0.0 0.00 0.00 0.00 55 1013.4
20260503202702 15 70 9.7 0.0 0.00 0.00 0.00 55 1013.5
20260503202601 15 62 11.3 0.0 0.00 0.00 0.00 54 1013.5
20260503202502 15 62 11.3 0.0 0.00 0.00 0.00 54 1013.5
20260503202401 15 62 11.3 0.0 0.00 0.00 0.00 54 1013.5
20260503202304 15 62 11.3 0.0 0.00 0.00 0.00 54 1013.5
20260503202202 15 62 11.3 0.0 0.00 0.00 0.00 54 1013.6
20260503202101 15 62 11.3 0.0 0.00 0.00 0.00 54 1013.5
20260503202002 15 62 11.3 0.0 0.00 0.00 0.00 54 1013.5
20260503201901 15 62 11.3 0.0 0.00 0.00 0.00 54 1013.5
20260503201802 16 65 16.1 0.0 0.00 0.00 0.00 54 1013.5
20260503201701 16 65 16.1 0.0 0.00 0.00 0.00 54 1013.5
20260503201602 15 65 16.1 0.0 0.00 0.00 0.00 54 1013.5
20260503201501 15 65 16.1 0.0 0.00 0.00 0.00 54 1013.5
20260503201401 16 72 14.5 0.0 0.00 0.00 0.00 53 1013.5
20260503201302 16 72 14.5 0.0 0.00 0.00 0.00 53 1013.5
20260503201201 16 72 14.5 0.0 0.00 0.00 0.00 53 1013.4
20260503201102 16 70 16.1 0.0 0.00 0.00 0.00 53 1013.4
20260503201001 16 70 16.1 0.0 0.00 0.00 0.00 53 1013.5
20260503200902 16 70 16.1 0.0 0.00 0.00 0.00 53 1013.5
20260503200802 16 55 16.1 0.0 0.00 0.00 0.00 51 1013.5
20260503200701 16 55 16.1 0.0 0.00 0.00 0.00 51 1013.4
20260503200602 16 55 16.1 0.0 0.00 0.00 0.00 51 1013.4
20260503200501 16 55 16.1 0.0 0.00 0.00 0.00 51 1013.4
20260503200402 16 55 16.1 0.0 0.00 0.00 0.00 51 1013.4
20260503200301 16 52 14.5 0.0 0.00 0.00 0.00 52 1013.4
20260503200202 16 52 14.5 0.0 0.00 0.00 0.00 52 1013.4
20260503200102 16 52 14.5 0.0 0.00 0.00 0.00 52 1013.4
20260503200001 16 52 14.5 0.0 0.00 0.00 0.00 52 1013.4
20260503195902 16 52 14.5 0.0 0.00 0.00 0.00 52 1013.3
20260503195801 16 65 22.5 0.0 0.00 0.00 0.00 52 1013.4
20260503195702 16 65 22.5 0.0 0.00 0.00 0.00 52 1013.3
20260503195601 16 65 14.5 0.0 0.00 0.00 0.00 52 1013.3
20260503195502 16 55 14.5 0.0 0.00 0.00 0.00 52 1013.3
20260503195401 16 55 14.5 0.0 0.00 0.00 0.00 52 1013.3
20260503195301 16 47 12.9 0.0 0.00 0.00 0.00 52 1013.3
20260503195202 16 47 12.9 0.0 0.00 0.00 0.00 52 1013.2
20260503195101 16 45 14.5 0.0 0.00 0.00 0.00 52 1013.3
20260503195002 16 45 14.5 0.0 0.00 0.00 0.00 52 1013.3
20260503194901 16 45 14.5 0.0 0.00 0.00 0.00 52 1013.2
20260503194802 16 45 9.7 0.0 0.00 0.00 0.00 51 1013.2
20260503194701 16 45 9.7 0.0 0.00 0.00 0.00 51 1013.2
20260503194602 16 45 9.7 0.0 0.00 0.00 0.00 51 1013.3
20260503194402 16 42 16.1 0.0 0.00 0.00 0.00 51 1013.2
20260503194302 16 42 16.1 0.0 0.00 0.00 0.00 51 1013.2
20260503194201 16 45 17.7 0.0 0.00 0.00 0.00 51 1013.2
20260503194104 16 45 17.7 0.0 0.00 0.00 0.00 51 1013.1
20260503194001 16 45 12.9 0.0 0.00 0.00 0.00 51 1013.2
20260503193902 16 45 12.9 0.0 0.00 0.00 0.00 51 1013.2
20260503193801 16 45 16.1 0.0 0.00 0.00 0.00 51 1013.1
20260503193702 16 45 16.1 0.0 0.00 0.00 0.00 51 1013.1
20260503193601 16 45 16.1 0.0 0.00 0.00 0.00 51 1013.2
20260503193501 16 40 19.3 0.0 0.00 0.00 0.00 51 1013.1
20260503193402 16 40 19.3 0.0 0.00 0.00 0.00 51 1013.1
20260503193301 16 40 19.3 0.0 0.00 0.00 0.00 51 1013.1
20260503193202 16 37 16.1 0.0 0.00 0.00 0.00 51 1013.1
20260503193101 16 37 16.1 0.0 0.00 0.00 0.00 51 1013.1
20260503193002 16 40 17.7 0.0 0.00 0.00 0.00 51 1012.9
20260503192902 16 40 17.7 0.0 0.00 0.00 0.00 51 1012.9
20260503192801 16 40 17.7 0.0 0.00 0.00 0.00 51 1012.9
20260503192702 16 40 17.7 0.0 0.00 0.00 0.00 51 1012.9
20260503192601 16 40 17.7 0.0 0.00 0.00 0.00 51 1012.9
20260503192502 16 45 14.5 0.0 0.00 0.00 0.00 51 1012.9
20260503192401 16 45 14.5 0.0 0.00 0.00 0.00 51 1012.9
20260503192305 16 45 14.5 0.0 0.00 0.00 0.00 51 1012.9
20260503192202 16 45 14.5 0.0 0.00 0.00 0.00 51 1012.9
20260503192101 16 45 14.5 0.0 0.00 0.00 0.00 51 1012.9
20260503192002 16 45 14.5 0.0 0.00 0.00 0.00 51 1012.9
20260503191901 16 45 14.5 0.0 0.00 0.00 0.00 51 1012.9
20260503191802 16 42 16.1 0.0 0.00 0.00 0.00 51 1012.8
20260503191701 16 42 16.1 0.0 0.00 0.00 0.00 51 1012.8
20260503191602 16 42 16.1 0.0 0.00 0.00 0.00 51 1012.9
20260503191502 16 55 11.3 0.0 0.00 0.00 0.00 51 1012.8
20260503191402 16 55 11.3 0.0 0.00 0.00 0.00 51 1012.8
20260503191302 16 55 16.1 0.0 0.00 0.00 0.00 51 1012.8
20260503191201 16 55 16.1 0.0 0.00 0.00 0.00 51 1012.8
20260503191102 16 55 16.1 0.0 0.00 0.00 0.00 51 1012.8
20260503191001 16 50 20.9 0.0 0.00 0.00 0.00 51 1012.8
20260503190902 16 47 9.7 0.0 0.00 0.00 0.00 51 1012.8
20260503190801 16 47 9.7 0.0 0.00 0.00 0.00 51 1012.8
20260503190702 16 45 14.5 0.0 0.00 0.00 0.00 51 1012.8
20260503190602 16 45 14.5 0.0 0.00 0.00 0.00 51 1012.8
20260503190502 16 45 9.7 0.0 0.00 0.00 0.00 51 1012.8
20260503190402 16 47 14.5 0.0 0.00 0.00 0.00 51 1012.8
20260503190301 16 47 14.5 0.0 0.00 0.00 0.00 51 1012.7
20260503190202 16 42 12.9 0.0 0.00 0.00 0.00 50 1012.8
20260503190002 16 40 12.9 0.0 0.00 0.00 0.00 50 1012.8
20260503185901 16 40 12.9 0.0 0.00 0.00 0.00 50 1012.8
20260503185802 16 40 20.9 0.0 0.00 0.00 0.00 51 1012.8
20260503185702 16 40 20.9 0.0 0.00 0.00 0.00 51 1012.8
20260503185601 16 42 11.3 0.0 0.00 0.00 0.00 50 1012.8
20260503185502 16 45 12.9 0.0 0.00 0.00 0.00 51 1012.7
20260503185401 16 45 12.9 0.0 0.00 0.00 0.00 51 1012.7
20260503185304 16 45 9.7 0.0 0.00 0.00 0.00 50 1012.7
20260503185202 16 45 17.7 0.0 0.00 0.00 0.00 50 1012.7
20260503185101 16 45 17.7 0.0 0.00 0.00 0.00 50 1012.7
20260503185002 16 40 19.3 0.0 0.00 0.00 0.00 50 1012.7
20260503184901 16 40 19.3 0.0 0.00 0.00 0.00 50 1012.7
20260503184802 16 40 19.3 0.0 0.00 0.00 0.00 50 1012.6
20260503184701 16 40 16.1 0.0 0.00 0.00 0.00 50 1012.7
20260503184602 16 40 16.1 0.0 0.00 0.00 0.00 50 1012.7
20260503184501 16 40 9.7 0.0 0.00 0.00 0.00 49 1012.7
20260503184402 16 47 20.9 0.0 0.00 0.00 0.00 49 1012.7
20260503184302 16 47 20.9 0.0 0.00 0.00 0.00 49 1012.7
20260503184201 16 47 20.9 0.0 0.00 0.00 0.00 49 1012.7
20260503184102 16 52 11.3 0.0 0.00 0.00 0.00 49 1012.6
20260503184001 16 55 9.7 0.0 0.00 0.00 0.00 49 1012.6
20260503183902 16 50 12.9 0.0 0.00 0.00 0.00 49 1012.6
20260503183802 16 50 12.9 0.0 0.00 0.00 0.00 49 1012.6
20260503183702 16 42 22.5 0.0 0.00 0.00 0.00 49 1012.6
20260503183602 16 35 9.7 0.0 0.00 0.00 0.00 49 1012.6
20260503183501 16 35 9.7 0.0 0.00 0.00 0.00 49 1012.6
20260503183402 16 40 16.1 0.0 0.00 0.00 0.00 49 1012.6
20260503183301 16 40 16.1 0.0 0.00 0.00 0.00 49 1012.5
20260503183202 17 47 20.9 0.0 0.00 0.00 0.00 48 1012.5
20260503183101 17 47 20.9 0.0 0.00 0.00 0.00 48 1012.5
20260503183002 17 47 9.7 0.0 0.00 0.00 0.00 48 1012.5
20260503182902 17 47 9.7 0.0 0.00 0.00 0.00 48 1012.5
20260503182801 17 47 9.7 0.0 0.00 0.00 0.00 48 1012.6
20260503182702 17 47 9.7 0.0 0.00 0.00 0.00 48 1012.5
20260503182601 17 50 11.3 0.0 0.00 0.00 0.00 47 1012.5
20260503182502 17 50 11.3 0.0 0.00 0.00 0.00 47 1012.5
20260503182402 17 45 17.7 0.0 0.00 0.00 0.00 47 1012.5
20260503182304 17 45 17.7 0.0 0.00 0.00 0.00 47 1012.5
20260503182202 17 47 16.1 0.0 0.00 0.00 0.00 47 1012.5
20260503182101 17 47 16.1 0.0 0.00 0.00 0.00 47 1012.4
20260503182002 17 47 16.1 0.0 0.00 0.00 0.00 47 1012.4
20260503181901 17 42 14.5 0.0 0.00 0.00 0.00 47 1012.5
20260503181802 17 42 14.5 0.0 0.00 0.00 0.00 47 1012.4
20260503181701 16 42 22.5 0.0 0.00 0.00 0.00 48 1012.5
20260503181602 16 42 22.5 0.0 0.00 0.00 0.00 48 1012.4
20260503181502 17 45 9.7 0.0 0.00 0.00 0.00 48 1012.4
20260503181402 17 40 14.5 0.0 0.00 0.00 0.00 48 1012.4
20260503181302 17 40 14.5 0.0 0.00 0.00 0.00 48 1012.4
20260503181202 16 40 19.3 0.0 0.00 0.00 0.00 48 1012.4
20260503181102 16 40 19.3 0.0 0.00 0.00 0.00 48 1012.4
20260503180902 16 37 16.1 0.0 0.00 0.00 0.00 49 1012.4
20260503180801 16 37 16.1 0.0 0.00 0.00 0.00 49 1012.4
20260503180702 16 47 9.7 0.0 0.00 0.00 0.00 48 1012.4
20260503180601 16 47 9.7 0.0 0.00 0.00 0.00 48 1012.4
20260503180502 16 47 20.9 0.0 0.00 0.00 0.00 48 1012.4
20260503180402 16 45 8.0 0.0 0.00 0.00 0.00 48 1012.4
20260503180302 16 45 8.0 0.0 0.00 0.00 0.00 48 1012.3
20260503180202 16 45 8.0 0.0 0.00 0.00 0.00 48 1012.4
20260503180002 16 47 11.3 0.0 0.00 0.00 0.00 49 1012.3
20260503175901 16 42 11.3 0.0 0.00 0.00 0.00 48 1012.4
20260503175802 16 42 11.3 0.0 0.00 0.00 0.00 48 1012.4
20260503175702 16 42 11.3 0.0 0.00 0.00 0.00 48 1012.4
20260503175601 16 47 8.0 0.0 0.00 0.00 0.00 48 1012.4
20260503175502 16 47 8.0 0.0 0.00 0.00 0.00 48 1012.4
20260503175401 16 47 8.0 0.0 0.00 0.00 0.00 48 1012.3
20260503175304 16 52 9.7 0.0 0.00 0.00 0.00 47 1012.4
20260503175201 16 52 9.7 0.0 0.00 0.00 0.00 47 1012.4
20260503175102 16 52 9.7 0.0 0.00 0.00 0.00 47 1012.4
20260503175002 17 37 8.0 0.0 0.00 0.00 0.00 47 1012.4
20260503174902 17 37 8.0 0.0 0.00 0.00 0.00 47 1012.3
20260503174802 17 37 9.7 0.0 0.00 0.00 0.00 47 1012.3
20260503174701 17 37 9.7 0.0 0.00 0.00 0.00 47 1012.3
20260503174602 17 27 11.3 0.0 0.00 0.00 0.00 47 1012.3
20260503174501 17 27 11.3 0.0 0.00 0.00 0.00 47 1012.4
20260503174402 17 27 11.3 0.0 0.00 0.00 0.00 47 1012.3
20260503174302 17 32 8.0 0.0 0.00 0.00 0.00 48 1012.3
20260503174202 17 32 8.0 0.0 0.00 0.00 0.00 48 1012.4
20260503174102 17 32 8.0 0.0 0.00 0.00 0.00 48 1012.3
20260503174002 17 32 8.0 0.0 0.00 0.00 0.00 48 1012.3
20260503173902 17 32 8.0 0.0 0.00 0.00 0.00 48 1012.3
20260503173801 17 35 8.0 0.0 0.00 0.00 0.00 47 1012.3
20260503173702 17 35 8.0 0.0 0.00 0.00 0.00 47 1012.3
20260503173602 17 32 6.4 0.0 0.00 0.00 0.00 47 1012.3
20260503173502 17 32 6.4 0.0 0.00 0.00 0.00 47 1012.3
20260503173401 17 32 9.7 0.0 0.00 0.00 0.00 46 1012.3
20260503173302 17 32 9.7 0.0 0.00 0.00 0.00 46 1012.3
20260503173201 17 32 9.7 0.0 0.00 0.00 0.00 46 1012.3
20260503173102 17 30 9.7 0.0 0.00 0.00 0.00 46 1012.3
20260503173001 17 30 9.7 0.0 0.00 0.00 0.00 46 1012.3
20260503172902 17 30 9.7 0.0 0.00 0.00 0.00 46 1012.3
20260503172802 17 30 9.7 0.0 0.00 0.00 0.00 46 1012.3
20260503172701 17 30 9.7 0.0 0.00 0.00 0.00 46 1012.3
20260503172602 17 35 9.7 0.0 0.00 0.00 0.00 46 1012.3
20260503172501 17 35 9.7 0.0 0.00 0.00 0.00 46 1012.2
20260503172402 17 35 9.7 0.0 0.00 0.00 0.00 46 1012.2
20260503172301 17 35 8.0 0.0 0.00 0.00 0.00 46 1012.3
20260503172202 17 35 8.0 0.0 0.00 0.00 0.00 46 1012.3
20260503172102 17 32 12.9 0.0 0.00 0.00 0.00 46 1012.3
20260503172002 17 32 12.9 0.0 0.00 0.00 0.00 46 1012.3
20260503171902 17 32 12.9 0.0 0.00 0.00 0.00 46 1012.2
20260503171801 17 25 12.9 0.0 0.00 0.00 0.00 46 1012.3
20260503171702 17 25 12.9 0.0 0.00 0.00 0.00 46 1012.2
20260503171601 17 25 12.9 0.0 0.00 0.00 0.00 46 1012.3
20260503171502 17 25 8.0 0.0 0.00 0.00 0.00 45 1012.2
20260503171402 17 25 8.0 0.0 0.00 0.00 0.00 45 1012.3
20260503171302 17 25 8.0 0.0 0.00 0.00 0.00 45 1012.2
20260503171202 17 25 8.0 0.0 0.00 0.00 0.00 45 1012.2
20260503171101 17 25 8.0 0.0 0.00 0.00 0.00 45 1012.2
20260503171002 17 20 9.7 0.0 0.00 0.00 0.00 46 1012.2
20260503170901 17 20 9.7 0.0 0.00 0.00 0.00 46 1012.3
20260503170802 17 22 8.0 0.0 0.00 0.00 0.00 46 1012.3
20260503170701 17 22 8.0 0.0 0.00 0.00 0.00 46 1012.3
20260503170602 17 17 8.0 0.0 0.00 0.00 0.00 45 1012.3
20260503170501 17 17 8.0 0.0 0.00 0.00 0.00 45 1012.3
20260503170402 17 17 8.0 0.0 0.00 0.00 0.00 45 1012.3
20260503170302 18 15 8.0 0.0 0.00 0.00 0.00 44 1012.3
20260503170201 18 15 8.0 0.0 0.00 0.00 0.00 44 1012.3
20260503160201 18 32 8.0 0.0 0.00 0.00 0.00 46 1012.8
20260503151002 18 27 17.7 0.0 0.00 0.00 0.00 43 1013.2
20260503150901 18 27 17.7 0.0 0.00 0.00 0.00 43 1013.1
20260503150802 18 25 8.0 0.0 0.00 0.00 0.00 43 1013.1
20260503150701 18 25 8.0 0.0 0.00 0.00 0.00 43 1013.2
20260503150602 18 20 11.3 0.0 0.00 0.00 0.00 42 1013.2
20260503150501 18 20 11.3 0.0 0.00 0.00 0.00 42 1013.2
20260503150401 18 20 11.3 0.0 0.00 0.00 0.00 42 1013.1
20260503150302 18 20 16.1 0.0 0.00 0.00 0.00 41 1013.2
20260503150201 18 20 16.1 0.0 0.00 0.00 0.00 41 1013.2
20260503140302 18 15 14.5 0.0 0.00 0.00 0.00 42 1013.5
20260503131402 18 22 9.7 0.0 0.00 0.00 0.00 43 1013.9
20260503131301 18 22 17.7 0.0 0.00 0.00 0.00 42 1013.9
20260503131202 18 22 17.7 0.0 0.00 0.00 0.00 42 1013.9
20260503131101 18 20 17.7 0.0 0.00 0.00 0.00 44 1013.9
20260503131002 18 20 17.7 0.0 0.00 0.00 0.00 44 1014.0
20260503130901 18 20 19.3 0.0 0.00 0.00 0.00 44 1013.9
20260503130802 18 20 19.3 0.0 0.00 0.00 0.00 44 1014.0
20260503130701 18 25 20.9 0.0 0.00 0.00 0.00 44 1014.0
20260503130601 18 25 20.9 0.0 0.00 0.00 0.00 44 1014.0
20260503130502 18 25 20.9 0.0 0.00 0.00 0.00 44 1014.1
20260503130401 18 35 14.5 0.0 0.00 0.00 0.00 45 1014.0
20260503130302 18 35 14.5 0.0 0.00 0.00 0.00 45 1014.0
20260503130201 18 35 14.5 0.0 0.00 0.00 0.00 45 1014.0
20260503120202 17 42 17.7 0.0 0.00 0.00 0.00 50 1014.3
20260503110802 17 25 12.9 0.0 0.00 0.00 0.00 46 1014.7
20260503110702 17 25 12.9 0.0 0.00 0.00 0.00 46 1014.7
20260503110601 17 37 14.5 0.0 0.00 0.00 0.00 46 1014.7
20260503110502 17 37 14.5 0.0 0.00 0.00 0.00 46 1014.7
20260503110401 17 37 14.5 0.0 0.00 0.00 0.00 46 1014.7
20260503110302 17 35 17.7 0.0 0.00 0.00 0.00 46 1014.7
20260503110202 17 35 17.7 0.0 0.00 0.00 0.00 46 1014.7
20260503100202 18 25 16.1 0.0 0.00 0.00 0.00 48 1015.2
20260503090502 19 35 17.7 0.0 0.00 0.00 0.00 49 1015.1
20260503090401 19 35 17.7 0.0 0.00 0.00 0.00 49 1015.1
20260503090302 19 25 17.7 0.0 0.00 0.00 0.00 49 1015.1
20260503090201 19 25 17.7 0.0 0.00 0.00 0.00 49 1015.1
20260503081601 19 45 12.9 0.0 0.00 0.00 0.00 48 1014.9
20260503081502 19 32 12.9 0.0 0.00 0.00 0.00 46 1014.9
20260503081401 19 32 12.9 0.0 0.00 0.00 0.00 46 1014.9
20260503081302 19 45 12.9 0.0 0.00 0.00 0.00 47 1015.1
20260503081202 19 45 12.9 0.0 0.00 0.00 0.00 47 1014.9
20260503081102 19 45 12.9 0.0 0.00 0.00 0.00 47 1014.9
20260503081002 19 40 9.7 0.0 0.00 0.00 0.00 46 1015.1
20260503080901 19 40 9.7 0.0 0.00 0.00 0.00 46 1014.9
20260503080802 19 12 20.9 0.0 0.00 0.00 0.00 45 1015.1
20260503080701 19 12 20.9 0.0 0.00 0.00 0.00 45 1014.9
20260503080602 19 12 20.9 0.0 0.00 0.00 0.00 45 1014.9
20260503080502 19 357 16.1 0.0 0.00 0.00 0.00 46 1014.9
20260503080401 19 357 16.1 0.0 0.00 0.00 0.00 46 1014.9
20260503080302 18 32 9.7 0.0 0.00 0.00 0.00 45 1014.9
20260503080201 18 32 9.7 0.0 0.00 0.00 0.00 45 1014.9
20260503072902 18 25 16.1 0.0 0.00 0.00 0.00 45 1014.8
20260503072802 18 25 16.1 0.0 0.00 0.00 0.00 45 1014.7
20260503072701 18 20 17.7 0.0 0.00 0.00 0.00 45 1014.8
20260503072602 18 20 17.7 0.0 0.00 0.00 0.00 45 1014.7
20260503072501 18 20 17.7 0.0 0.00 0.00 0.00 45 1014.8
20260503072402 18 20 17.7 0.0 0.00 0.00 0.00 45 1014.8
20260503072301 18 20 17.7 0.0 0.00 0.00 0.00 45 1014.8
20260503072202 17 15 12.9 0.0 0.00 0.00 0.00 45 1014.8
20260503072102 17 15 12.9 0.0 0.00 0.00 0.00 45 1014.8
20260503072002 18 25 17.7 0.0 0.00 0.00 0.00 46 1014.8
20260503071902 18 25 17.7 0.0 0.00 0.00 0.00 46 1014.8
20260503071801 18 25 17.7 0.0 0.00 0.00 0.00 46 1014.7
20260503071702 18 7 20.9 0.0 0.00 0.00 0.00 46 1014.7
20260503071601 18 7 20.9 0.0 0.00 0.00 0.00 46 1014.7
20260503071502 17 5 11.3 0.0 0.00 0.00 0.00 46 1014.7
20260503071401 17 15 11.3 0.0 0.00 0.00 0.00 46 1014.6
20260503071302 17 15 11.3 0.0 0.00 0.00 0.00 46 1014.6
20260503071202 17 15 11.3 0.0 0.00 0.00 0.00 46 1014.7
20260503071101 18 27 12.9 0.0 0.00 0.00 0.00 47 1014.6
20260503071002 18 27 12.9 0.0 0.00 0.00 0.00 47 1014.6
20260503070901 18 27 9.7 0.0 0.00 0.00 0.00 46 1014.6
20260503070802 18 27 9.7 0.0 0.00 0.00 0.00 46 1014.6
20260503070702 18 27 12.9 0.0 0.00 0.00 0.00 46 1014.6
20260503070601 18 27 11.3 0.0 0.00 0.00 0.00 46 1014.7
20260503070502 18 27 11.3 0.0 0.00 0.00 0.00 46 1014.8
20260503070401 18 27 11.3 0.0 0.00 0.00 0.00 46 1014.8
20260503070302 18 27 11.3 0.0 0.00 0.00 0.00 46 1014.8
20260503070201 18 27 11.3 0.0 0.00 0.00 0.00 46 1014.7
20260503060301 16 25 8.0 0.0 0.00 0.00 0.00 51 1014.6
20260503060202 16 25 8.0 0.0 0.00 0.00 0.00 51 1014.6
20260503055102 15 35 9.7 0.0 0.00 0.00 0.00 53 1014.6
20260503055002 15 35 9.7 0.0 0.00 0.00 0.00 53 1014.6
20260503054901 15 35 9.7 0.0 0.00 0.00 0.00 53 1014.6
20260503054802 15 20 6.4 0.0 0.00 0.00 0.00 55 1014.6
20260503054701 15 20 6.4 0.0 0.00 0.00 0.00 55 1014.6
20260503054602 15 20 6.4 0.0 0.00 0.00 0.00 55 1014.6
20260503054501 15 22 6.4 0.0 0.00 0.00 0.00 55 1014.6
20260503054402 15 22 6.4 0.0 0.00 0.00 0.00 55 1014.6
20260503054302 15 25 8.0 0.0 0.00 0.00 0.00 54 1014.6
20260503054201 15 25 8.0 0.0 0.00 0.00 0.00 54 1014.6
20260503054102 15 25 8.0 0.0 0.00 0.00 0.00 54 1014.6
20260503054001 15 25 8.0 0.0 0.00 0.00 0.00 54 1014.6
20260503053902 15 25 8.0 0.0 0.00 0.00 0.00 54 1014.6
20260503053801 15 25 8.0 0.0 0.00 0.00 0.00 54 1014.6
20260503053702 15 35 11.3 0.0 0.00 0.00 0.00 57 1014.6
20260503053602 15 35 11.3 0.0 0.00 0.00 0.00 57 1014.6
20260503053502 15 55 9.7 0.0 0.00 0.00 0.00 56 1014.6
20260503053402 15 55 9.7 0.0 0.00 0.00 0.00 56 1014.6
20260503053301 15 55 9.7 0.0 0.00 0.00 0.00 56 1014.6
20260503053202 15 45 8.0 0.0 0.00 0.00 0.00 57 1014.6
20260503053101 15 45 8.0 0.0 0.00 0.00 0.00 57 1014.5
20260503053002 15 27 6.4 0.0 0.00 0.00 0.00 57 1014.6
20260503052901 15 27 6.4 0.0 0.00 0.00 0.00 57 1014.6
20260503052802 15 27 6.4 0.0 0.00 0.00 0.00 57 1014.6
20260503052702 13 37 6.4 0.0 0.00 0.00 0.00 59 1014.6
20260503052601 13 37 6.4 0.0 0.00 0.00 0.00 59 1014.6
20260503052502 13 37 6.4 0.0 0.00 0.00 0.00 59 1014.6
20260503052401 13 37 6.4 0.0 0.00 0.00 0.00 59 1014.6
20260503052302 13 37 6.4 0.0 0.00 0.00 0.00 59 1014.6
20260503052201 13 35 4.8 0.0 0.00 0.00 0.00 59 1014.7
20260503052102 13 35 4.8 0.0 0.00 0.00 0.00 59 1014.7
20260503052002 13 35 4.8 0.0 0.00 0.00 0.00 59 1014.6
20260503051901 13 30 4.8 0.0 0.00 0.00 0.00 60 1014.7
20260503051802 13 30 4.8 0.0 0.00 0.00 0.00 60 1014.7
20260503051701 12 40 0.0 0.0 0.00 0.00 0.00 63 1014.7
20260503051602 12 40 0.0 0.0 0.00 0.00 0.00 63 1014.7
20260503051501 12 40 0.0 0.0 0.00 0.00 0.00 63 1014.7
20260503051402 12 40 0.0 0.0 0.00 0.00 0.00 63 1014.7
20260503051301 12 40 0.0 0.0 0.00 0.00 0.00 63 1014.7
20260503051202 12 40 0.0 0.0 0.00 0.00 0.00 63 1014.7
20260503051102 12 50 0.0 0.0 0.00 0.00 0.00 64 1014.7
20260503051001 12 50 0.0 0.0 0.00 0.00 0.00 64 1014.8
20260503050902 11 67 0.0 0.0 0.00 0.00 0.00 67 1014.7
20260503050801 11 67 0.0 0.0 0.00 0.00 0.00 67 1014.8
20260503050702 10 147 0.0 0.0 0.00 0.00 0.00 70 1014.8
20260503050601 10 147 0.0 0.0 0.00 0.00 0.00 70 1014.8
20260503050502 10 147 0.0 0.0 0.00 0.00 0.00 70 1014.8
20260503050402 10 242 0.0 0.0 0.00 0.00 0.00 72 1014.8
20260503050301 10 242 0.0 0.0 0.00 0.00 0.00 72 1014.8
20260503050202 10 242 0.0 0.0 0.00 0.00 0.00 72 1014.8
20260503050002 10 242 0.0 0.0 0.00 0.00 0.00 72 1014.7
20260503045902 10 222 0.0 0.0 0.00 0.00 0.00 73 1014.8
20260503045802 10 222 0.0 0.0 0.00 0.00 0.00 73 1014.8
20260503045702 10 195 0.0 0.0 0.00 0.00 0.00 74 1014.8
20260503045601 10 195 0.0 0.0 0.00 0.00 0.00 74 1014.8
20260503045502 10 195 0.0 0.0 0.00 0.00 0.00 74 1014.8
20260503045401 9 152 0.0 0.0 0.00 0.00 0.00 75 1014.8
20260503045304 9 152 0.0 0.0 0.00 0.00 0.00 75 1014.8
20260503045202 9 237 0.0 0.0 0.00 0.00 0.00 76 1014.8
20260503045102 9 237 0.0 0.0 0.00 0.00 0.00 76 1014.8
20260503045002 9 237 0.0 0.0 0.00 0.00 0.00 76 1014.8
20260503044901 9 187 0.0 0.0 0.00 0.00 0.00 77 1014.8
20260503044802 9 187 0.0 0.0 0.00 0.00 0.00 77 1014.7
20260503044701 8 215 0.0 0.0 0.00 0.00 0.00 78 1014.8
20260503044602 8 215 0.0 0.0 0.00 0.00 0.00 78 1014.8
20260503044501 8 215 0.0 0.0 0.00 0.00 0.00 78 1014.8
20260503044402 8 215 0.0 0.0 0.00 0.00 0.00 79 1014.8
20260503044301 8 215 0.0 0.0 0.00 0.00 0.00 79 1014.8
20260503044201 8 207 0.0 0.0 0.00 0.00 0.00 80 1014.8
20260503044102 8 207 0.0 0.0 0.00 0.00 0.00 80 1014.8
20260503044001 8 207 0.0 0.0 0.00 0.00 0.00 80 1014.7
20260503043902 8 212 0.0 0.0 0.00 0.00 0.00 80 1014.8
20260503043801 8 212 0.0 0.0 0.00 0.00 0.00 80 1014.8
20260503043702 7 215 0.0 0.0 0.00 0.00 0.00 80 1014.8
20260503043602 7 215 0.0 0.0 0.00 0.00 0.00 80 1014.8
20260503043501 7 215 0.0 0.0 0.00 0.00 0.00 80 1014.8
20260503043402 7 202 0.0 0.0 0.00 0.00 0.00 80 1014.8
20260503043301 7 202 0.0 0.0 0.00 0.00 0.00 80 1014.8
20260503043202 7 210 0.0 0.0 0.00 0.00 0.00 81 1014.8
20260503043101 7 210 0.0 0.0 0.00 0.00 0.00 81 1014.8
20260503043002 7 210 0.0 0.0 0.00 0.00 0.00 81 1014.8
20260503042902 7 222 0.0 0.0 0.00 0.00 0.00 81 1014.8
20260503042802 7 222 0.0 0.0 0.00 0.00 0.00 81 1014.8
20260503042702 7 222 0.0 0.0 0.00 0.00 0.00 81 1014.8
20260503042601 7 212 0.0 0.0 0.00 0.00 0.00 82 1014.9
20260503042502 7 212 0.0 0.0 0.00 0.00 0.00 82 1014.9
20260503042401 6 220 0.0 0.0 0.00 0.00 0.00 83 1014.9
20260503042304 6 220 0.0 0.0 0.00 0.00 0.00 83 1014.9
20260503042201 6 220 0.0 0.0 0.00 0.00 0.00 83 1014.9
20260503042102 6 220 0.0 0.0 0.00 0.00 0.00 83 1014.9
20260503042002 6 220 0.0 0.0 0.00 0.00 0.00 83 1014.9
20260503041901 6 220 0.0 0.0 0.00 0.00 0.00 83 1014.9
20260503041802 6 220 0.0 0.0 0.00 0.00 0.00 83 1014.9
20260503041701 6 220 0.0 0.0 0.00 0.00 0.00 83 1014.9
20260503041602 6 220 0.0 0.0 0.00 0.00 0.00 83 1014.9
20260503041502 6 220 0.0 0.0 0.00 0.00 0.00 83 1014.9
20260503041402 6 220 0.0 0.0 0.00 0.00 0.00 83 1014.9
20260503041302 6 220 0.0 0.0 0.00 0.00 0.00 83 1014.9
20260503041201 6 220 0.0 0.0 0.00 0.00 0.00 83 1014.9
20260503041102 6 220 0.0 0.0 0.00 0.00 0.00 82 1014.9
20260503041001 6 220 0.0 0.0 0.00 0.00 0.00 82 1014.9
20260503040902 6 210 0.0 0.0 0.00 0.00 0.00 83 1014.9
20260503040802 6 210 0.0 0.0 0.00 0.00 0.00 83 1014.9
20260503040702 6 210 0.0 0.0 0.00 0.00 0.00 83 1014.9
20260503040602 6 210 0.0 0.0 0.00 0.00 0.00 83 1014.9
20260503040501 6 210 0.0 0.0 0.00 0.00 0.00 83 1014.9
20260503040402 6 210 0.0 0.0 0.00 0.00 0.00 83 1014.8
20260503040301 6 195 0.0 0.0 0.00 0.00 0.00 83 1014.8
20260503040202 6 195 0.0 0.0 0.00 0.00 0.00 83 1014.9
20260503040002 6 215 0.0 0.0 0.00 0.00 0.00 83 1014.9
20260503035902 6 215 0.0 0.0 0.00 0.00 0.00 83 1014.9
20260503035802 6 215 0.0 0.0 0.00 0.00 0.00 84 1014.9
20260503035702 6 215 0.0 0.0 0.00 0.00 0.00 84 1014.9
20260503035601 6 220 0.0 0.0 0.00 0.00 0.00 84 1014.9
20260503035502 6 220 0.0 0.0 0.00 0.00 0.00 84 1014.9
20260503035401 6 220 0.0 0.0 0.00 0.00 0.00 84 1014.9
20260503035304 6 220 0.0 0.0 0.00 0.00 0.00 83 1014.9
20260503035201 6 220 0.0 0.0 0.00 0.00 0.00 83 1014.9
20260503035102 6 225 0.0 0.0 0.00 0.00 0.00 83 1014.9
20260503035002 6 225 0.0 0.0 0.00 0.00 0.00 83 1014.9
20260503034901 6 225 0.0 0.0 0.00 0.00 0.00 83 1014.9
20260503034802 6 230 0.0 0.0 0.00 0.00 0.00 83 1014.9
20260503034701 6 230 0.0 0.0 0.00 0.00 0.00 83 1014.9
20260503034602 6 225 0.0 0.0 0.00 0.00 0.00 82 1014.9
20260503034501 6 225 0.0 0.0 0.00 0.00 0.00 82 1014.8
20260503034402 6 225 0.0 0.0 0.00 0.00 0.00 82 1014.9
20260503034301 6 220 0.0 0.0 0.00 0.00 0.00 82 1014.9
20260503034202 6 220 0.0 0.0 0.00 0.00 0.00 82 1014.9
20260503033801 6 217 4.8 0.0 0.00 0.00 0.00 82 1014.9
20260503033702 6 217 4.8 0.0 0.00 0.00 0.00 82 1014.9
20260503033601 6 205 4.8 0.0 0.00 0.00 0.00 82 1014.9
20260503033402 6 205 4.8 0.0 0.00 0.00 0.00 82 1014.9
20260503033301 6 190 4.8 0.0 0.00 0.00 0.00 83 1014.8
20260503033202 6 190 4.8 0.0 0.00 0.00 0.00 83 1014.8
20260503033101 6 190 4.8 0.0 0.00 0.00 0.00 83 1014.8
20260503033002 6 217 0.0 0.0 0.00 0.00 0.00 82 1014.8
20260503032901 6 217 0.0 0.0 0.00 0.00 0.00 82 1014.8
20260503032802 6 217 0.0 0.0 0.00 0.00 0.00 82 1014.8
20260503032701 6 217 0.0 0.0 0.00 0.00 0.00 82 1014.8
20260503032602 6 210 4.8 0.0 0.00 0.00 0.00 83 1014.8
20260503032502 6 210 4.8 0.0 0.00 0.00 0.00 83 1014.8
20260503032401 6 210 4.8 0.0 0.00 0.00 0.00 83 1014.8
20260503032304 6 200 0.0 0.0 0.00 0.00 0.00 83 1014.8
20260503032201 6 200 0.0 0.0 0.00 0.00 0.00 83 1014.8
20260503032102 6 200 0.0 0.0 0.00 0.00 0.00 83 1014.8
20260503032002 6 200 0.0 0.0 0.00 0.00 0.00 83 1014.8
20260503031902 6 200 0.0 0.0 0.00 0.00 0.00 83 1014.8
20260503031802 6 197 0.0 0.0 0.00 0.00 0.00 83 1014.7
20260503031701 6 197 0.0 0.0 0.00 0.00 0.00 83 1014.8
20260503031602 6 215 4.8 0.0 0.00 0.00 0.00 83 1014.7
20260503031501 6 215 4.8 0.0 0.00 0.00 0.00 83 1014.7
20260503031402 6 215 4.8 0.0 0.00 0.00 0.00 83 1014.7
20260503031301 6 215 0.0 0.0 0.00 0.00 0.00 83 1014.8
20260503031202 6 215 0.0 0.0 0.00 0.00 0.00 83 1014.8
20260503031102 6 215 0.0 0.0 0.00 0.00 0.00 83 1014.8
20260503031001 6 215 0.0 0.0 0.00 0.00 0.00 83 1014.8
20260503030902 6 215 0.0 0.0 0.00 0.00 0.00 83 1014.8
20260503030801 6 215 0.0 0.0 0.00 0.00 0.00 83 1014.8
20260503030702 6 215 0.0 0.0 0.00 0.00 0.00 83 1014.8
20260503030601 6 220 0.0 0.0 0.00 0.00 0.00 83 1014.8
20260503030502 6 220 0.0 0.0 0.00 0.00 0.00 83 1014.8
20260503030402 6 220 0.0 0.0 0.00 0.00 0.00 83 1014.8
20260503030301 6 220 0.0 0.0 0.00 0.00 0.00 83 1014.8
20260503030202 6 220 0.0 0.0 0.00 0.00 0.00 83 1014.8
20260503030002 6 210 0.0 0.0 0.00 0.00 0.00 82 1014.9
20260503025901 6 210 0.0 0.0 0.00 0.00 0.00 82 1014.8
20260503025802 6 220 0.0 0.0 0.00 0.00 0.00 82 1014.9
20260503025702 6 220 0.0 0.0 0.00 0.00 0.00 82 1014.9
20260503025601 6 220 0.0 0.0 0.00 0.00 0.00 82 1014.9
20260503025502 6 217 0.0 0.0 0.00 0.00 0.00 82 1014.9
20260503025401 6 217 0.0 0.0 0.00 0.00 0.00 82 1014.9
20260503025304 6 215 0.0 0.0 0.00 0.00 0.00 82 1014.9
20260503025202 6 215 0.0 0.0 0.00 0.00 0.00 82 1014.9
20260503025101 6 215 0.0 0.0 0.00 0.00 0.00 82 1014.9
20260503025002 6 215 0.0 0.0 0.00 0.00 0.00 82 1014.9
20260503024901 6 215 0.0 0.0 0.00 0.00 0.00 82 1014.9
20260503024802 6 205 0.0 0.0 0.00 0.00 0.00 83 1014.9
20260503024702 6 205 0.0 0.0 0.00 0.00 0.00 83 1014.9
20260503024602 6 205 0.0 0.0 0.00 0.00 0.00 83 1015.1
20260503024502 6 205 0.0 0.0 0.00 0.00 0.00 83 1014.9
20260503024402 6 205 0.0 0.0 0.00 0.00 0.00 83 1014.9
20260503024302 6 200 0.0 0.0 0.00 0.00 0.00 83 1015.1
20260503024201 6 200 0.0 0.0 0.00 0.00 0.00 83 1015.1
20260503024102 6 200 0.0 0.0 0.00 0.00 0.00 83 1015.1
20260503024001 6 207 0.0 0.0 0.00 0.00 0.00 83 1015.1
20260503023902 6 207 0.0 0.0 0.00 0.00 0.00 83 1015.1
20260503023801 6 207 0.0 0.0 0.00 0.00 0.00 83 1015.1
20260503023701 6 205 0.0 0.0 0.00 0.00 0.00 82 1015.1
20260503023602 6 205 0.0 0.0 0.00 0.00 0.00 82 1015.1
20260503023501 6 205 0.0 0.0 0.00 0.00 0.00 82 1015.1
20260503023402 6 205 0.0 0.0 0.00 0.00 0.00 82 1015.1
20260503023301 6 205 0.0 0.0 0.00 0.00 0.00 82 1015.1
20260503023202 6 207 0.0 0.0 0.00 0.00 0.00 83 1015.1
20260503023101 6 207 0.0 0.0 0.00 0.00 0.00 83 1015.1
20260503023002 6 207 0.0 0.0 0.00 0.00 0.00 83 1015.1
20260503022902 6 207 0.0 0.0 0.00 0.00 0.00 83 1015.1
20260503022801 6 207 0.0 0.0 0.00 0.00 0.00 83 1015.1
20260503022702 6 210 0.0 0.0 0.00 0.00 0.00 83 1015.1
20260503022601 6 210 0.0 0.0 0.00 0.00 0.00 83 1015.1
20260503022502 6 195 0.0 0.0 0.00 0.00 0.00 83 1015.1
20260503022401 6 195 0.0 0.0 0.00 0.00 0.00 83 1015.2
20260503022304 6 195 0.0 0.0 0.00 0.00 0.00 83 1015.1
20260503022202 6 187 0.0 0.0 0.00 0.00 0.00 83 1015.2
20260503022102 6 187 0.0 0.0 0.00 0.00 0.00 83 1015.2
20260503022002 6 187 0.0 0.0 0.00 0.00 0.00 83 1015.2
20260503021901 6 215 0.0 0.0 0.00 0.00 0.00 82 1015.2
20260503021802 6 215 0.0 0.0 0.00 0.00 0.00 82 1015.2
20260503021701 6 215 0.0 0.0 0.00 0.00 0.00 83 1015.2
20260503021602 6 215 0.0 0.0 0.00 0.00 0.00 83 1015.2
20260503021501 6 215 0.0 0.0 0.00 0.00 0.00 83 1015.2
20260503021402 6 215 0.0 0.0 0.00 0.00 0.00 83 1015.2
20260503021302 6 215 0.0 0.0 0.00 0.00 0.00 83 1015.3
20260503021201 6 215 0.0 0.0 0.00 0.00 0.00 83 1015.3
20260503021102 6 220 0.0 0.0 0.00 0.00 0.00 83 1015.3
20260503021001 6 220 0.0 0.0 0.00 0.00 0.00 83 1015.3
20260503020902 6 220 0.0 0.0 0.00 0.00 0.00 83 1015.3
20260503020801 6 220 0.0 0.0 0.00 0.00 0.00 83 1015.3
20260503020702 6 202 0.0 0.0 0.00 0.00 0.00 83 1015.3
20260503020602 6 202 0.0 0.0 0.00 0.00 0.00 83 1015.3
20260503020502 6 202 0.0 0.0 0.00 0.00 0.00 83 1015.4
20260503020401 6 200 0.0 0.0 0.00 0.00 0.00 83 1015.3
20260503020302 6 200 0.0 0.0 0.00 0.00 0.00 83 1015.4
20260503020201 6 200 0.0 0.0 0.00 0.00 0.00 83 1015.4
20260503020001 6 215 0.0 0.0 0.00 0.00 0.00 83 1015.3
20260503015902 6 220 0.0 0.0 0.00 0.00 0.00 83 1015.4
20260503015802 6 220 0.0 0.0 0.00 0.00 0.00 83 1015.4
20260503015701 6 227 0.0 0.0 0.00 0.00 0.00 82 1015.4
20260503015602 6 227 0.0 0.0 0.00 0.00 0.00 82 1015.4
20260503015501 6 227 0.0 0.0 0.00 0.00 0.00 82 1015.4
20260503015402 6 215 0.0 0.0 0.00 0.00 0.00 82 1015.4
20260503015302 6 215 0.0 0.0 0.00 0.00 0.00 82 1015.4
20260503015202 6 217 0.0 0.0 0.00 0.00 0.00 81 1015.4
20260503015102 6 217 0.0 0.0 0.00 0.00 0.00 81 1015.4
20260503015001 6 217 0.0 0.0 0.00 0.00 0.00 81 1015.4
20260503014902 6 217 0.0 0.0 0.00 0.00 0.00 81 1015.4
20260503014801 6 217 0.0 0.0 0.00 0.00 0.00 81 1015.4
20260503014702 7 200 0.0 0.0 0.00 0.00 0.00 81 1015.5
20260503014602 7 200 0.0 0.0 0.00 0.00 0.00 81 1015.5
20260503014502 7 200 0.0 0.0 0.00 0.00 0.00 81 1015.5
20260503014402 7 195 0.0 0.0 0.00 0.00 0.00 81 1015.5
20260503014301 7 195 0.0 0.0 0.00 0.00 0.00 81 1015.5
20260503014202 7 195 0.0 0.0 0.00 0.00 0.00 81 1015.5
20260503014101 7 195 0.0 0.0 0.00 0.00 0.00 81 1015.5
20260503014002 7 195 0.0 0.0 0.00 0.00 0.00 81 1015.5
20260503013901 7 190 0.0 0.0 0.00 0.00 0.00 81 1015.5
20260503013802 7 190 0.0 0.0 0.00 0.00 0.00 81 1015.5
20260503013701 7 202 0.0 0.0 0.00 0.00 0.00 81 1015.5
20260503013602 7 202 0.0 0.0 0.00 0.00 0.00 81 1015.6
20260503013502 7 202 0.0 0.0 0.00 0.00 0.00 81 1015.5
20260503013402 7 197 0.0 0.0 0.00 0.00 0.00 81 1015.6
20260503013302 7 197 0.0 0.0 0.00 0.00 0.00 81 1015.6
20260503013202 7 207 0.0 0.0 0.00 0.00 0.00 81 1015.6
20260503013102 7 207 0.0 0.0 0.00 0.00 0.00 81 1015.6
20260503013002 7 207 0.0 0.0 0.00 0.00 0.00 81 1015.6
20260503012802 7 185 0.0 0.0 0.00 0.00 0.00 82 1015.7
20260503012701 7 185 0.0 0.0 0.00 0.00 0.00 82 1015.7
20260503012602 7 190 4.8 0.0 0.00 0.00 0.00 82 1015.7
20260503012501 7 190 4.8 0.0 0.00 0.00 0.00 82 1015.7
20260503012402 7 195 0.0 0.0 0.00 0.00 0.00 82 1015.7
20260503012302 7 195 0.0 0.0 0.00 0.00 0.00 82 1015.7
20260503012201 7 195 0.0 0.0 0.00 0.00 0.00 82 1015.7
20260503012102 7 210 4.8 0.0 0.00 0.00 0.00 82 1015.7
20260503012001 7 210 4.8 0.0 0.00 0.00 0.00 82 1015.7
20260503011902 7 232 4.8 0.0 0.00 0.00 0.00 82 1015.7
20260503011801 7 232 4.8 0.0 0.00 0.00 0.00 82 1015.8
20260503011702 7 232 4.8 0.0 0.00 0.00 0.00 82 1015.8
20260503011601 7 227 4.8 0.0 0.00 0.00 0.00 82 1015.8
20260503011502 7 227 4.8 0.0 0.00 0.00 0.00 82 1015.8
20260503011402 7 220 0.0 0.0 0.00 0.00 0.00 82 1015.8
20260503011301 7 220 0.0 0.0 0.00 0.00 0.00 82 1015.8
20260503011202 7 220 0.0 0.0 0.00 0.00 0.00 82 1015.8
20260503011101 7 195 0.0 0.0 0.00 0.00 0.00 82 1015.9
20260503011002 7 195 0.0 0.0 0.00 0.00 0.00 82 1015.8
20260503010901 7 227 0.0 0.0 0.00 0.00 0.00 82 1015.8
20260503010802 7 227 0.0 0.0 0.00 0.00 0.00 82 1015.8
20260503010702 7 227 0.0 0.0 0.00 0.00 0.00 82 1015.8
20260503010601 7 197 0.0 0.0 0.00 0.00 0.00 81 1015.8
20260503010501 7 197 0.0 0.0 0.00 0.00 0.00 81 1015.8
20260503010402 7 197 0.0 0.0 0.00 0.00 0.00 81 1015.9
20260503010301 7 195 0.0 0.0 0.00 0.00 0.00 82 1015.9
20260503010202 7 195 0.0 0.0 0.00 0.00 0.00 82 1015.9
20260503010002 7 175 0.0 0.0 0.00 0.00 0.00 82 1015.8
20260503005902 7 175 0.0 0.0 0.00 0.00 0.00 82 1015.9
20260503005801 8 205 8.0 0.0 0.00 0.00 0.00 83 1016.0
20260503005702 8 205 8.0 0.0 0.00 0.00 0.00 83 1015.9
20260503005601 7 235 4.8 0.0 0.00 0.00 0.00 83 1015.9
20260503005502 7 235 4.8 0.0 0.00 0.00 0.00 83 1015.9
20260503005401 7 235 4.8 0.0 0.00 0.00 0.00 83 1015.9
20260503005304 7 237 6.4 0.0 0.00 0.00 0.00 82 1016.0
20260503005202 7 237 6.4 0.0 0.00 0.00 0.00 82 1016.0
20260503005101 7 237 6.4 0.0 0.00 0.00 0.00 82 1015.9